Home > Weather > Odda > Past weeks

Flag for Norway Weather for the Past 2 Weeks in Odda, Norway

Now
60 °F

Refreshingly cool.


Feels Like: N/A
Forecast: 46 / 61 °F
Wind: N/A

Location: Sauda

Current Time: May 6, 2016 at 2:16:22 PM

Latest Report: May 6, 2016 at 1:00 PM


Visibility: N/A

Pressure: 30.18 "Hg

Humidity: 27%

Dew Point: 25 °F

Location of OddaLocation

Historic Weather in Odda — Graph

°F

Odda Temperature Yesterday

Maximum temperature yesterday: 58 °F (at 6:00 PM)
Minimum temperature yesterday: 46 °F (at 7:00 AM)
Average temperature yesterday: 51 °F

High & Low Weather Summary for the Past Weeks

 TemperatureHumidityPressure
High60 °F (May 6, 1:00 PM)92% (May 3, 5:00 AM)30.32 "Hg (May 3, 5:00 AM)
Low30 °F (Apr 24, 6:00 AM)23% (Apr 24, 4:00 PM)29.57 "Hg (Apr 25, 4:00 PM)
Average44 °F58%29.98 "Hg
* Reported Apr 21 1:00 PM — May 6 1:00 PM, Odda, Weather by CustomWeather, © 2016

Note: Actual official high and low records may vary slightly from our data, if they occured in-between our weather recording intervals... More about our weather records

Advertising

Odda Weather History for the Previous 24 Hours

Scroll right to see more
 ConditionsComfort  
Time TempWeatherWind HumidityBarometerVisibility
1:00 PM
Fri, May 6
60 °FRefreshingly cool.N/A27%30.18 "HgN/A
12:00 PM56 °FRefreshingly cool.N/A44%30.19 "HgN/A
11:00 AM47 °FCool.N/A63%30.20 "HgN/A
10:00 AM45 °FQuite cool.N/A65%30.22 "HgN/A
9:00 AM45 °FQuite cool.N/A66%30.22 "HgN/A
8:00 AM43 °FQuite cool.N/A68%30.23 "HgN/A
7:00 AM43 °FQuite cool.N/A69%30.23 "HgN/A
6:00 AM42 °FQuite cool.N/A68%30.22 "HgN/A
5:00 AM42 °FOvercast.N/A67%30.23 "Hg19 mi
4:00 AM42 °FQuite cool.N/A66%30.23 "HgN/A
3:00 AM44 °FQuite cool.N/A61%30.23 "HgN/A
2:00 AM44 °FQuite cool.N/A62%30.23 "HgN/A
1:00 AM46 °FCool.N/A60%30.23 "HgN/A
12:00 AM47 °FCool.N/A59%30.22 "HgN/A
11:00 PM
Thu, May 5
49 °FCool.N/A56%30.22 "HgN/A
10:00 PM53 °FCool.N/A47%30.21 "HgN/A
9:00 PM55 °FCool.N/A40%30.21 "HgN/A
8:00 PM56 °FRefreshingly cool.N/A43%30.22 "HgN/A
7:00 PM56 °FRefreshingly cool.N/A47%30.22 "HgN/A
6:00 PM58 °FRefreshingly cool.N/A45%30.22 "HgN/A
5:00 PM57 °FRefreshingly cool.N/A48%30.22 "HgN/A
4:00 PM56 °FRefreshingly cool.N/A49%30.23 "HgN/A
3:00 PM57 °FRefreshingly cool.N/A44%30.24 "HgN/A
2:00 PM55 °FRefreshingly cool.N/A45%30.25 "HgN/A
Weather by CustomWeather, © 2016

See weather overviewHow to use our weather pages